Location: Carnoy
(49.9849°N, 2.7558°E)
Time: 15:17:22
(UTC+00:00)

ARGOS - Pass Details

Date: 24 January 2020
Orbit: 821 x 834 km, 98.5° (Epoch: 25 February)

Event Time Altitude Azimuth Distance (km) Brightness Sun altitude
Exits shadow 18:02:01 21° 60° (ENE) 1,808 4.3 -14.7°
Maximum altitude 18:02:16 21° 56° (NE) 1,805 4.4 -14.8°
Drops below altitude 10° 18:06:09 10° 10° (N) 2,445 5.4 -15.4°
Sets 18:09:03 0° 355° (N) 3,386 6.3 -15.9°
